DW2550 Weather Reports


Display with metric or nautical units.
time (UTC)temp
F
wind
direction
speed
MPH
gust
MPH
rain 1hr
in
rain 24hr
in
rain mn
in
humidity
%
barometer
mb
20190220131749 38 229 0.0 5.0 0.02 0.84 0.07 93 1024.3
20190220131246 38 228 1.0 5.0 0.01 0.83 0.06 93 1024.1
20190220130744 38 22 0.0 5.0 0.01 0.83 0.06 93 1023.9
20190220130255 38 22 0.0 1.0 0.01 0.83 0.06 93 1024.2
20190220125751 38 22 0.0 5.0 0.02 0.83 0.06 93 1024.3
20190220125248 38 22 1.0 5.0 0.02 0.83 0.06 93 1024.0
20190220124745 38 5 1.0 5.0 0.02 0.83 0.06 93 1023.7
20190220124242 37 328 1.0 4.0 0.02 0.83 0.06 93 1023.6
20190220123738 37 219 0.0 4.0 0.01 0.82 0.05 93 1023.8
20190220123251 37 219 1.0 4.0 0.01 0.82 0.05 93 1024.1
20190220122746 36 214 0.0 4.0 0.02 0.82 0.05 93 1023.8
20190220122243 36 60 2.0 4.0 0.02 0.82 0.05 93 1023.8
20190220121741 36 34 0.0 2.0 0.02 0.82 0.05 93 1024.0
20190220121238 36 34 0.0 3.0 0.02 0.82 0.05 93 1023.9
20190220120754 36 34 0.0 3.0 0.02 0.82 0.05 93 1024.2
20190220120244 36 34 0.0 1.0 0.02 0.82 0.05 93 1024.4
20190220115741 36 34 0.0 5.0 0.01 0.81 0.04 93 1024.1
20190220115239 36 34 2.0 5.0 0.01 0.81 0.04 93 1023.9
20190220114755 35 200 0.0 4.0 0.01 0.81 0.04 93 1024.0
20190220114253 35 199 0.0 2.0 0.01 0.81 0.04 93 1024.1
20190220113749 35 200 0.0 3.0 0.02 0.81 0.04 93 1024.3
20190220113247 35 200 1.0 3.0 0.02 0.81 0.04 93 1023.7
20190220112742 35 199 0.0 3.0 0.01 0.80 0.03 93 1023.8
20190220112238 35 200 0.0 3.0 0.01 0.80 0.03 93 1023.8
20190220111755 35 200 0.0 3.0 0.01 0.80 0.03 93 1024.2
20190220111252 35 199 0.0 3.0 0.01 0.80 0.03 93 1024.1
20190220110750 35 199 0.0 2.0 0.01 0.80 0.03 93 1024.2
20190220110240 35 199 0.0 2.0 0.01 0.80 0.03 93 1023.9
20190220105737 35 199 0.0 1.0 0.01 0.80 0.03 93 1024.1
20190220105255 35 199 0.0 1.0 0.01 0.80 0.03 93 1024.1
20190220104749 35 199 0.0 2.0 0.01 0.80 0.03 93 1024.3
20190220104247 35 200 0.0 7.0 0.01 0.80 0.03 93 1024.3
20190220103745 35 199 1.0 7.0 0.00 0.79 0.02 93 1024.3
20190220103243 35 40 0.0 3.0 0.00 0.79 0.02 93 1024.5
20190220102740 35 32 0.0 4.0 0.00 0.79 0.02 93 1024.5
20190220102236 35 25 1.0 4.0 0.00 0.79 0.02 93 1024.3
20190220101754 35 40 1.0 3.0 0.00 0.79 0.02 93 1024.5
20190220101251 35 40 1.0 3.0 0.00 0.79 0.02 93 1024.0
20190220100749 35 39 0.0 3.0 0.00 0.79 0.02 93 1024.4
20190220100238 35 34 0.0 3.0 0.00 0.79 0.02 93 1024.1
20190220095754 35 34 0.0 1.0 0.00 0.79 0.02 93 1024.7
20190220095252 35 34 0.0 0.0 0.00 0.79 0.02 93 1024.6
20190220094750 35 34 0.0 1.0 0.00 0.79 0.02 93 1024.7
20190220094249 35 34 0.0 1.0 0.00 0.79 0.02 93 1024.7
20190220093747 35 34 0.0 2.0 0.00 0.79 0.02 93 1024.7
20190220093243 35 34 0.0 3.0 0.00 0.79 0.02 93 1024.5
20190220092741 35 34 1.0 5.0 0.00 0.79 0.02 93 1024.6
20190220092237 35 21 1.0 5.0 0.00 0.79 0.02 93 1025.0
20190220091754 35 9 0.0 3.0 0.00 0.79 0.02 93 1024.9
20190220091251 35 9 0.0 1.0 0.00 0.79 0.02 93 1025.0
20190220090747 35 9 0.0 1.0 0.00 0.79 0.02 93 1024.9
20190220090255 35 9 0.0 3.0 0.01 0.79 0.02 93 1024.8
20190220085752 35 9 1.0 3.0 0.01 0.79 0.02 93 1024.9
20190220085247 35 9 0.0 3.0 0.01 0.79 0.02 93 1024.9
20190220084743 35 9 0.0 1.0 0.01 0.79 0.02 93 1025.0
20190220084240 35 9 0.0 1.0 0.01 0.79 0.02 93 1025.0
20190220083738 35 9 0.0 1.0 0.01 0.79 0.02 93 1025.1
20190220083256 35 9 0.0 1.0 0.01 0.79 0.02 93 1025.3
20190220082753 35 9 0.0 0.0 0.01 0.79 0.02 93 1025.3
20190220082253 35 9 0.0 3.0 0.01 0.79 0.02 93 1025.4
20190220081749 35 9 0.0 3.0 0.01 0.79 0.02 93 1025.8
20190220080746 35 9 0.0 0.0 0.01 0.79 0.02 93 1025.8
20190220080236 35 9 0.0 2.0 0.00 0.78 0.01 93 1025.7
20190220075753 35 9 0.0 2.0 0.00 0.78 0.01 93 1025.8
20190220075251 35 9 0.0 1.0 0.00 0.78 0.01 93 1025.9
20190220074748 35 9 0.0 1.0 0.00 0.78 0.01 93 1025.9
20190220074244 35 9 0.0 1.0 0.00 0.78 0.01 93 1025.8
20190220073742 35 9 0.0 2.0 0.00 0.78 0.01 93 1025.9
20190220073239 35 9 0.0 1.0 0.00 0.78 0.01 93 1025.9
20190220072737 35 9 0.0 3.0 0.00 0.78 0.01 93 1025.8
20190220072235 35 210 0.0 1.0 0.00 0.78 0.01 93 1025.9
20190220071752 35 210 0.0 0.0 0.00 0.78 0.01 93 1026.0
20190220071251 34 210 0.0 0.0 0.00 0.78 0.01 93 1026.3
20190220070747 34 210 0.0 1.0 0.00 0.78 0.01 93 1026.5
20190220070236 34 210 0.0 1.0 0.00 0.78 0.01 93 1026.5
20190220065748 34 210 0.0 1.0 0.00 0.78 0.01 93 1026.3
20190220065245 34 210 0.0 1.0 0.00 0.78 0.01 93 1026.3
20190220064741 34 210 0.0 3.0 0.00 0.78 0.01 93 1026.7
20190220064239 34 224 0.0 3.0 0.00 0.78 0.01 93 1026.7
20190220063736 34 229 0.0 2.0 0.00 0.78 0.01 93 1026.6
20190220063254 34 229 0.0 2.0 0.00 0.78 0.01 93 1026.7
20190220062240 34 211 0.0 2.0 0.00 0.78 0.01 93 1026.6
20190220061737 34 213 0.0 1.0 0.00 0.78 0.01 93 1026.6
20190220061252 34 211 0.0 3.0 0.01 0.78 0.01 93 1026.7
20190220060750 34 211 0.0 7.0 0.01 0.78 0.01 93 1026.6
20190220060240 33 211 1.0 7.0 0.01 0.78 0.01 93 1026.5
20190220055736 33 76 0.0 1.0 0.01 0.78 0.01 93 1026.7
20190220055253 33 76 0.0 2.0 0.01 0.78 0.01 93 1026.6
20190220054753 33 70 0.0 4.0 0.01 0.78 0.01 93 1026.8
20190220054250 33 70 0.0 6.0 0.02 0.78 0.01 93 1026.9
20190220053748 33 204 2.0 6.0 0.02 0.78 0.01 93 1026.7
20190220053245 33 60 1.0 5.0 0.02 0.78 0.01 93 1026.7
20190220052741 33 355 1.0 3.0 0.03 0.78 0.01 93 1026.7
20190220052239 33 342 0.0 2.0 0.03 0.78 0.01 93 1027.0
20190220051736 33 341 0.0 2.0 0.04 0.78 0.01 93 1027.2
20190220051252 33 341 0.0 1.0 0.03 0.77 0.00 93 1027.2
20190220050749 33 341 0.0 1.0 0.03 0.77 0.00 93 1027.1
20190220050239 33 341 0.0 1.0 0.03 0.77 0.00 93 1027.5
20190220045754 33 341 0.0 1.0 0.04 0.77 0.77 93 1027.7
20190220045251 33 341 0.0 0.0 0.04 0.77 0.77 93 1027.8
20190220044750 33 341 0.0 5.0 0.04 0.77 0.77 93 1027.9
20190220044246 33 341 1.0 5.0 0.03 0.76 0.76 93 1027.6
20190220043742 33 360 0.0 2.0 0.04 0.76 0.76 93 1027.5
20190220043239 33 337 0.0 3.0 0.04 0.76 0.76 93 1027.7
20190220042736 33 337 0.0 4.0 0.03 0.75 0.75 93 1027.8
20190220042252 34 337 0.0 5.0 0.03 0.75 0.75 93 1027.6
20190220041748 34 337 1.0 5.0 0.02 0.74 0.74 93 1027.5
20190220041247 34 337 0.0 7.0 0.02 0.74 0.74 93 1027.5
20190220040742 34 190 1.0 3.0 0.02 0.74 0.74 93 1027.6
20190220040252 34 190 0.0 3.0 0.03 0.74 0.74 93 1027.5
20190220035747 34 190 0.0 3.0 0.02 0.73 0.73 93 1027.6
20190220035244 34 192 0.0 4.0 0.02 0.73 0.73 93 1027.6
20190220034741 35 115 0.0 4.0 0.03 0.73 0.73 93 1027.3
20190220034238 35 91 1.0 4.0 0.03 0.73 0.73 93 1027.4
20190220033755 35 307 1.0 6.0 0.02 0.72 0.72 93 1027.4
20190220033254 35 310 1.0 6.0 0.03 0.72 0.72 93 1027.4
20190220032749 35 103 0.0 6.0 0.03 0.72 0.72 93 1027.7
20190220032245 35 112 1.0 6.0 0.04 0.72 0.72 93 1027.7
20190220031744 35 159 1.0 5.0 0.04 0.72 0.72 93 1027.7
20190220031240 35 208 1.0 5.0 0.04 0.72 0.72 93 1027.5
20190220030738 35 208 0.0 2.0 0.05 0.72 0.72 93 1027.9
20190220030243 35 208 0.0 2.0 0.05 0.71 0.71 93 1027.9
20190220025739 35 209 0.0 4.0 0.05 0.71 0.71 93 1027.9
20190220025235 36 209 1.0 4.0 0.06 0.71 0.71 93 1028.2
20190220024752 36 144 0.0 6.0 0.06 0.70 0.70 93 1027.8
20190220024250 36 182 1.0 6.0 0.07 0.70 0.70 93 1027.9
20190220023747 36 175 0.0 4.0 0.08 0.70 0.70 93 1027.8
20190220023245 36 121 0.0 4.0 0.07 0.69 0.69 93 1027.7
20190220022742 36 104 0.0 8.0 0.07 0.69 0.69 93 1027.5
20190220022238 36 102 2.0 8.0 0.07 0.68 0.68 93 1027.3
20190220021755 36 215 1.0 6.0 0.07 0.68 0.68 93 1027.1
20190220021252 37 57 1.0 4.0 0.09 0.68 0.68 93 1027.4
20190220020749 37 163 1.0 5.0 0.08 0.67 0.67 93 1027.4
20190220020240 37 163 0.0 6.0 0.07 0.66 0.66 93 1027.8
20190220015755 37 169 0.0 6.0 0.08 0.66 0.66 93 1027.9
20190220015251 37 173 0.0 3.0 0.07 0.65 0.65 93 1027.7
20190220014748 37 167 0.0 7.0 0.06 0.64 0.64 93 1027.6
20190220014245 37 166 2.0 7.0 0.05 0.63 0.63 93 1027.6
20190220013742 38 94 1.0 5.0 0.05 0.62 0.62 93 1028.1
20190220012741 38 195 1.0 8.0 0.06 0.62 0.62 93 1027.9
20190220012238 38 96 0.0 3.0 0.06 0.61 0.61 93 1027.9
20190220011736 38 96 0.0 5.0 0.07 0.61 0.61 93 1027.9
20190220011254 38 31 0.0 5.0 0.05 0.59 0.59 93 1028.1
20190220010749 38 325 1.0 3.0 0.06 0.59 0.59 93 1028.8
20190220010238 38 325 0.0 1.0 0.07 0.59 0.59 93 1028.4
20190220005754 38 325 0.0 4.0 0.06 0.58 0.58 93 1028.1
20190220005250 38 325 0.0 7.0 0.07 0.58 0.58 93 1028.4
20190220004746 38 94 1.0 5.0 0.07 0.58 0.58 93 1028.0
20190220004244 38 59 0.0 2.0 0.07 0.57 0.57 93 1027.5
20190220003741 38 63 0.0 2.0 0.08 0.57 0.57 93 1027.8
20190220003239 38 63 0.0 1.0 0.08 0.56 0.56 93 1028.3
20190220002736 38 63 0.0 0.0 0.09 0.56 0.56 93 1029.0
20190220002252 38 63 0.0 2.0 0.09 0.55 0.55 93 1028.4
20190220001748 38 63 0.0 5.0 0.09 0.54 0.54 93 1029.4
20190220001246 38 63 0.0 5.0 0.10 0.54 0.54 93 1029.1
20190220000745 38 64 0.0 0.0 0.10 0.53 0.53 93 1028.5
20190220000255 38 64 0.0 1.0 0.10 0.52 0.52 93 1028.3
20190219235752 38 64 0.0 1.0 0.11 0.52 0.52 93 1028.9
20190219235249 38 64 0.0 0.0 0.11 0.51 0.51 93 1028.6
20190219234746 38 64 0.0 1.0 0.13 0.50 0.50 93 1028.5
20190219234245 38 64 0.0 2.0 0.14 0.50 0.50 93 1028.7
20190219233743 38 64 0.0 2.0 0.14 0.49 0.49 93 1028.3
20190219233241 38 64 0.0 1.0 0.15 0.48 0.48 93 1027.7
20190219232738 38 64 0.0 0.0 0.15 0.47 0.47 93 1028.0
20190219232252 38 64 0.0 1.0 0.15 0.46 0.46 93 1028.1
20190219231741 37 64 0.0 1.0 0.15 0.45 0.45 93 1028.3
20190219231237 37 64 0.0 0.0 0.15 0.44 0.44 93 1027.8
20190219230753 37 64 0.0 5.0 0.15 0.43 0.43 93 1027.8
20190219230244 37 69 0.0 5.0 0.15 0.42 0.42 93 1027.9
20190219225740 37 5 0.0 4.0 0.14 0.41 0.41 93 1028.3
20190219225237 36 5 1.0 4.0 0.13 0.40 0.40 93 1028.7
20190219224754 36 5 0.0 3.0 0.10 0.37 0.37 93 1028.0
20190219224251 36 5 0.0 2.0 0.09 0.36 0.36 93 1029.3
20190219223748 36 5 0.0 0.0 0.08 0.35 0.35 93 1029.2
20190219223245 36 5 0.0 0.0 0.06 0.33 0.33 93 1029.1
20190219222742 36 5 0.0 0.0 0.05 0.32 0.32 92 1029.2
20190219222238 36 5 0.0 0.0 0.04 0.31 0.31 92 1029.3
20190219221754 36 5 0.0 2.0 0.03 0.30 0.30 92 1028.9
20190219221252 37 5 0.0 2.0 0.02 0.29 0.29 92 1028.4
20190219220750 37 5 0.0 3.0 0.01 0.28 0.28 93 1027.8
20190219220240 38 5 0.0 3.0 0.00 0.27 0.27 93 1027.7
20190219215751 38 5 0.0 2.0 0.00 0.27 0.27 92 1028.0
20190219215248 39 5 0.0 1.0 0.00 0.27 0.27 93 1027.8
20190219214746 39 5 0.0 0.0 0.01 0.27 0.27 93 1027.2
20190219214242 39 5 0.0 0.0 0.01 0.27 0.27 93 1027.5
20190219213738 39 5 0.0 0.0 0.02 0.27 0.27 93 1027.6
20190219213254 39 5 0.0 0.0 0.04 0.27 0.27 93 1027.8
20190219212751 39 5 0.0 3.0 0.04 0.27 0.27 93 1028.3
20190219212247 39 5 1.0 3.0 0.05 0.27 0.27 93 1028.2
20190219211743 39 5 0.0 1.0 0.06 0.27 0.27 93 1027.4
20190219211239 39 5 0.0 2.0 0.06 0.27 0.27 92 1027.7
20190219210736 38 5 1.0 2.0 0.06 0.27 0.27 92 1028.5
20190219210246 38 5 0.0 1.0 0.07 0.27 0.27 93 1028.2
20190219205740 38 5 0.0 1.0 0.07 0.27 0.27 92 1028.6
20190219205255 38 5 0.0 1.0 0.07 0.27 0.27 93 1028.5
20190219204751 37 5 0.0 1.0 0.07 0.26 0.26 93 1028.6
20190219204249 37 5 0.0 1.0 0.07 0.26 0.26 92 1028.5
20190219203744 37 5 0.0 0.0 0.07 0.25 0.25 92 1028.7
20190219203243 37 5 0.0 0.0 0.06 0.23 0.23 92 1028.4
20190219202740 37 5 0.0 0.0 0.07 0.23 0.23 92 1028.3
20190219202238 37 5 0.0 0.0 0.07 0.22 0.22 92 1029.4
20190219201755 37 5 0.0 3.0 0.06 0.21 0.21 93 1029.7
20190219201252 37 5 0.0 3.0 0.07 0.21 0.21 92 1029.9
20190219200749 36 5 0.0 2.0 0.07 0.21 0.21 92 1029.7
20190219200240 36 5 0.0 3.0 0.07 0.20 0.20 92 1029.3
20190219195737 36 5 1.0 3.0 0.07 0.20 0.20 92 1029.0
20190219195252 36 5 0.0 0.0 0.07 0.20 0.20 92 1028.3
20190219194750 35 5 0.0 0.0 0.07 0.19 0.19 92 1028.6
20190219194247 35 5 0.0 0.0 0.07 0.19 0.19 92 1028.9
20190219193745 35 5 0.0 0.0 0.07 0.18 0.18 92 1028.9
20190219193242 36 5 0.0 0.0 0.06 0.17 0.17 92 1029.0
20190219192737 36 5 0.0 1.0 0.05 0.16 0.16 92 1029.0
20190219192253 36 5 0.0 1.0 0.04 0.15 0.15 92 1029.6
20190219191749 36 5 0.0 0.0 0.05 0.15 0.15 92 1029.8
20190219191246 36 5 0.0 0.0 0.04 0.14 0.14 92 1029.8
20190219190743 36 5 0.0 0.0 0.04 0.14 0.14 92 1029.4
20190219190252 36 5 0.0 0.0 0.03 0.13 0.13 92 1029.2
20190219185748 36 5 0.0 0.0 0.03 0.13 0.13 92 1029.1
20190219185246 36 5 0.0 0.0 0.04 0.13 0.13 92 1029.1
20190219184740 36 5 0.0 1.0 0.03 0.12 0.12 92 1029.1
20190219184236 36 5 0.0 1.0 0.03 0.12 0.12 92 1029.1
20190219183754 36 5 0.0 0.0 0.03 0.11 0.11 92 1029.1
20190219183252 36 5 0.0 1.0 0.03 0.11 0.11 92 1029.1
20190219182749 36 5 0.0 1.0 0.04 0.11 0.11 92 1029.0
20190219182247 36 5 0.0 0.0 0.05 0.11 0.11 92 1029.1
20190219181743 36 5 0.0 0.0 0.05 0.10 0.10 92 1028.9
20190219181241 36 5 0.0 0.0 0.05 0.10 0.10 92 1028.8
20190219180739 35 5 0.0 0.0 0.06 0.10 0.10 92 1029.0
20190219180248 35 5 0.0 0.0 0.07 0.10 0.10 92 1029.2
20190219175744 35 5 0.0 0.0 0.07 0.10 0.10 92 1029.1
20190219175241 35 5 0.0 0.0 0.06 0.09 0.09 92 1029.0
20190219174737 35 5 0.0 0.0 0.07 0.09 0.09 92 1029.3
20190219174255 35 5 0.0 0.0 0.07 0.09 0.09 92 1029.4
20190219173752 35 5 0.0 0.0 0.07 0.08 0.08 92 1029.6
20190219173250 35 5 0.0 0.0 0.07 0.08 0.08 92 1030.0
20190219172747 35 5 0.0 0.0 0.07 0.07 0.07 92 1030.3
20190219172245 34 5 0.0 0.0 0.06 0.06 0.06 92 1030.6
20190219171741 34 5 0.0 0.0 0.05 0.05 0.05 92 1030.4
20190219171237 34 5 0.0 0.0 0.04 0.04 0.04 92 1030.3
20190219170754 34 5 0.0 0.0 0.04 0.04 0.04 92 1030.5
20190219170243 34 5 0.0 0.0 0.03 0.03 0.03 92 1030.7
20190219165739 34 5 0.0 0.0 0.03 0.03 0.03 92 1030.8
20190219165237 34 5 0.0 0.0 0.03 0.03 0.03 92 1030.6
20190219164755 34 5 0.0 0.0 0.02 0.02 0.02 92 1030.6
20190219164251 34 5 0.0 0.0 0.02 0.02 0.02 91 1030.9
20190219163750 34 5 0.0 0.0 0.01 0.01 0.01 91 1030.8
20190219163249 34 5 0.0 0.0 0.01 0.01 0.01 91 1030.7
20190219162746 34 5 0.0 0.0 0.00 0.00 0.00 91 1030.6
20190219162242 34 5 0.0 1.0 0.00 0.00 0.00 91 1030.5
20190219161740 34 5 0.0 1.0 0.00 0.00 0.00 91 1030.5
20190219161251 34 5 0.0 1.0 0.00 0.00 0.00 91 1030.5
20190219160748 34 5 0.0 1.0 0.00 0.00 0.00 91 1030.5
20190219160238 34 5 0.0 0.0 0.00 0.00 0.00 91 1030.6
20190219155754 34 5 0.0 0.0 0.00 0.00 0.00 91 1030.5
20190219155252 34 5 0.0 0.0 0.00 0.00 0.00 91 1030.7
20190219154749 34 5 0.0 0.0 0.00 0.00 0.00 91 1030.5
20190219154248 34 5 0.0 0.0 0.00 0.00 0.00 91 1030.4
20190219153744 34 5 0.0 0.0 0.00 0.00 0.00 91 1030.7
20190219153242 34 5 0.0 0.0 0.00 0.00 0.00 91 1031.0
20190219152740 34 5 0.0 0.0 0.00 0.00 0.00 90 1031.3
20190219152237 34 5 0.0 0.0 0.00 0.00 0.00 90 1031.6
20190219151754 34 5 0.0 1.0 0.00 0.00 0.00 90 1031.7
20190219151251 34 5 0.0 1.0 0.00 0.00 0.00 90 1031.7
20190219150748 34 5 0.0 0.0 0.00 0.00 0.00 89 1031.4
20190219150237 34 5 0.0 0.0 0.00 0.00 0.00 89 1031.1
20190219145755 34 5 0.0 1.0 0.00 0.00 0.00 89 1031.1
20190219145246 34 5 0.0 1.0 0.00 0.00 0.00 88 1031.4
20190219144742 34 5 0.0 1.0 0.00 0.00 0.00 87 1031.6
20190219144239 34 5 0.0 0.0 0.00 0.00 0.00 87 1031.7
20190219143738 34 5 0.0 0.0 0.00 0.00 0.00 86 1031.6
20190219143256 34 5 0.0 1.0 0.00 0.00 0.00 86 1031.6
20190219142752 34 5 0.0 1.0 0.00 0.00 0.00 85 1031.7
20190219142250 34 5 0.0 1.0 0.00 0.00 0.00 85 1031.7
20190219141745 35 5 0.0 2.0 0.00 0.00 0.00 85 1031.6
20190219141242 35 5 0.0 2.0 0.00 0.00 0.00 84 1031.4
20190219140740 35 5 0.0 0.0 0.00 0.00 0.00 85 1031.4
20190219140249 35 5 0.0 1.0 0.00 0.00 0.00 84 1031.4
20190219135744 35 5 0.0 2.0 0.00 0.00 0.00 84 1031.2
20190219135240 36 5 0.0 2.0 0.00 0.00 0.00 83 1031.0
20190219134737 36 5 0.0 1.0 0.00 0.00 0.00 83 1031.0
20190219134254 36 5 0.0 3.0 0.00 0.00 0.00 82 1030.9
20190219133751 36 5 1.0 3.0 0.00 0.00 0.00 81 1031.2
20190219133246 37 5 0.0 1.0 0.00 0.00 0.00 80 1031.1
20190219132741 37 5 0.0 2.0 0.00 0.00 0.00 79 1031.0
20190219132238 37 5 1.0 2.0 0.00 0.00 0.00 79 1030.8